Regional Weather Roundup
Issued by NWS

Home | Current Version | Previous Version | Text Only | Print | Product List | Glossary On
Versions: 1 2 3 4 5 6 7 8 9 10 11 12 13 14 15 16 17 18 19 20 21 22 23 24 25 26 27 28 29 30 31 32 33 34 35 36 37 38 39 40 41 42 43 44 45 46 47 48 49 50
000
ASUS43 KLOT 281709
RWRIL

ILLINOIS REGIONAL WEATHER ROUNDUP
NATIONAL WEATHER SERVICE CHICAGO/ROMEOVILLE IL
1200 PM CDT WED JUN 28 2017

NOTE: "FAIR" INDICATES FEW OR NO CLOUDS BELOW 12,000 FEET WITH NO
SIGNIFICANT WEATHER AND/OR OBSTRUCTIONS TO VISIBILITY.

* THESE STATIONS ARE NOT UNDER NWS QUALITY CONTROL. THEY ALSO MAY NOT
  REPORT WEATHER SUCH AS PRECIPITATION OR FOG.

ILZ001-002-007-009-015-016-024-281800-
NORTHWEST ILLINOIS

CITY           SKY/WX    TMP DP  RH WIND       PRES   REMARKS
MOLINE         PTSUNNY   73  66  78 S16G25    29.78F
STERLING*      CLOUDY    69  64  84 SE13G21   29.87F
SAVANNA*       CLOUDY    69  64  84 S15G24    29.82F
$$

ILZ003-004-008-010-011-017-018-281800-
NORTH CENTRAL ILLINOIS

CITY           SKY/WX    TMP DP  RH WIND       PRES   REMARKS
ROCKFORD       CLOUDY    67  63  87 S17G26    29.90S
FREEPORT*      CLOUDY    66  62  86 S18G29    29.87F
ROCHELLE*      CLOUDY    64  62  90 S20G28    29.91S
DE KALB*       CLOUDY    63  61  93 S22       29.94R
PERU*          CLOUDY    65  61  86 S16       29.92F
$$

ILZ005-006-012>014-019>023-281800-
NORTHEAST ILLINOIS

CITY           SKY/WX    TMP DP  RH WIND       PRES   REMARKS
CHICAGO-OHARE  RAIN      63  58  83 S23       29.96F
CHICAGO-MIDWAY LGT RAIN  66  58  75 S9        30.00F
AURORA         LGT RAIN  63  60  90 SE20G31   29.91F
LANSING*       CLOUDY    69  53  55 S12       30.02R
JOLIET*        RAIN      64  62  91 SE5       29.99F
WAUKEGAN       CLOUDY    63  59  87 S21G36    29.88F
DUPAGE AIRPORT RAIN      62  61  96 SE16G25   29.91F FOG
WHEELING       LGT RAIN  62  61  96 S21       29.93F
MORRIS*        HVY RAIN  64  59  86 SE12      29.95F
ROMEOVILLE*    RAIN      63  57  83 S9        30.00F
$$

LMZ740>746-281800-
SOUTHERN LAKE MICHIGAN

STATION/POSITION SKY/WX   TEMP    WIND        PRES    VSBY  WAVE
                          AIR SEA DIR/SP/G                  HT/PER
                          (F)     (DEG/KT/KT) (MB)    (MI)  (FT/S)
SOUTHERN BUOY              64 61  180/ 19/ 21 1014.8          4/ 5
WILMETTE HARBOR            64 63  170/ 17/ 23   N/A           2/ 4
HARRISON CRIB              69     200/ 20/ 22   N/A
BURNHAM HARBOR             66                   N/A
CALUMET HARBOR             70     200/ 10/ 14 1015.6S
BURNS HARBOR               72     190/ 13/ 17 1016.9S
MICHIGAN CITY              71     170/ 13/ 15   N/A
MICHIGAN CITY 6N           70 66  200/ 12/ 16   N/A           2/ 3
ST. JOSEPH                 71 67  210/ 14/ 17 1016.6          2/ 3
$$

ILZ025>027-034>036-040-047-049-050-058-095>099-281800-
WEST-CENTRAL ILLINOIS

CITY           SKY/WX    TMP DP  RH WIND       PRES   REMARKS
QUINCY         CLOUDY    78  65  63 S21G28    29.87F HX  80
GALESBURG*     PTSUNNY   73  65  77 SE8G21    29.84F
MACOMB*        CLOUDY    75  65  69 S12G30    29.88F
JACKSONVILLE*  CLOUDY    78  64  62 S15G23    29.95F
PITTSFIELD*    CLOUDY    79  67  67 S18       29.93F HX  81
$$

ILZ028>032-037-038-041>044-048-051>054-059>061-281800-
CENTRAL ILLINOIS

CITY           SKY/WX    TMP DP  RH WIND       PRES   REMARKS
PONTIAC        CLOUDY    73  62  68 CALM      30.00R
BLOOMINGTON    CLOUDY    77  63  61 S21G29    29.98F
DECATUR        CLOUDY    78  61  55 S16G23    30.01F HX  80
PEORIA         CLOUDY    76  66  71 S16G24    29.91F
LACON*         CLOUDY    69  65  89 S10       29.90F
LINCOLN*       CLOUDY    78  64  63 S10G21    29.97F HX  80
SPRINGFIELD    CLOUDY    79  65  62 SW16G26   29.98F HX  81
TAYLORVILLE    CLOUDY    77  63  61 S15G23    30.00F
$$

ILZ033-039-045-046-055>057-062-063-281800-
EAST-CENTRAL ILLINOIS

CITY           SKY/WX    TMP DP  RH WIND       PRES   REMARKS
CHAMPAIGN      CLOUDY    78  58  49 S22G28    30.03F
RANTOUL*       CLOUDY    79  61  54 S16G23    30.02F HX  80
MATTOON        CLOUDY    76  61  59 S10G23    30.04F
PARIS*         PTSUNNY   75  60  58 S15G21    30.07F
$$

ILZ079-100>102-281800-
SOUTHWEST ILLINOIS

CITY           SKY/WX    TMP DP  RH WIND       PRES   REMARKS
ALTON          CLOUDY    79  66  65 S17G23    29.98F HX  81
BELLEVILLE     PTSUNNY   80  66  62 S14       30.01F HX  82
CAHOKIA*       CLOUDY    83  63  50 S13       29.99F HX  84
SPARTA*        CLOUDY    82  65  56 S12G21    30.05F HX  83
$$

ILZ064>066-069>071-074>076-080>082-084>086-088>090-092>094-281800-
SOUTH-CENTRAL ILLINOIS

CITY           SKY/WX    TMP DP  RH WIND       PRES   REMARKS
CARBONDALE     CLOUDY    83  66  56 S15       30.06F HX  85
CAIRO*         SUNNY     83  64  53 S8        30.07F HX  84
EFFINGHAM*     MOSUNNY   80  63  56 SE8       30.06F HX  81
MARION         PTSUNNY   82  64  54 S12       30.08F HX  84
MT. VERNON     CLOUDY    83  65  54 S15G24    30.05F HX  85
CENTRALIA*     MOSUNNY   82  65  56 S14       30.04F HX  84
SALEM*         MOSUNNY   82  64  54 S12G18    30.04F HX  83
METROPOLIS*    MOSUNNY   82  64  54 S8        30.09S HX  84
$$

ILZ067-068-072-073-078-083-087-091-281800-
SOUTHEAST ILLINOIS

CITY           SKY/WX    TMP DP  RH WIND       PRES   REMARKS
LAWRENCEVILLE  CLOUDY    79  59  50 S14       30.09F HX  80
FLORA*         CLOUDY    82  63  51 S13       30.06F HX  83
FAIRFIELD*     MOSUNNY   80  62  53 S7        30.06F HX  81
HARRISBURG*    CLOUDY    81  65  58 S10G16    30.08F HX  83
ROBINSON*      MOSUNNY   78  58  49 S12G18    30.09F
CARMI*         PTSUNNY   82  63  51 S13       30.07F HX  83
$$

ABBREVIATIONS USED IN REMARKS
   TC - TEMPERATURE IN CELSIUS
  WCI - WIND CHILL INDEX
   HX - HEAT INDEX
  VSB - VISIBILITY
$$





USA.gov is the U.S. government's official web portal to all federal, state and local government web resources and services.